Newark Heath, OH

3:49 PM EST on January 18, 2018 (GMT -0500)
Newark Heath

Weather History for KVTA - September, 2013

Change the Weather History Date:

Tuesday, September 17, 2013

  Actual Average Record
Temperature  
Mean Temperature 58 °F -  
Max Temperature 72 °F 75 °F 94 °F (1955)
Min Temperature 46 °F 53 °F 32 °F (1959)
Degree Days  
Heating Degree Days 6    
Growing Degree Days 8 (Base 50)    
Moisture  
Dew Point 49 °F    
Average Humidity 81    
Maximum Humidity 100    
Minimum Humidity 47    
Precipitation  
Precipitation 0.00 in - - ()
Sea Level Pressure  
Sea Level Pressure 30.32 in    
Wind  
Wind Speed 2 mph (NE)    
Max Wind Speed 9 mph    
Max Gust Speed -    
Visibility 9 miles    
Events      
Averages and records for this station are not official NWS values.
T = Trace of Precipitation, MM = Missing Value Source: NWS Daily Summary

Daily Weather History Graph

Daily Weather History Graph

Search for Another Location

Airport or City:

Trip Planner

Search our weather history database for the weather conditions in past years. The results will help you decide how hot, cold, wet, or windy it might be!

Date:

Astronomy

Sep. 17, 2013 Rise Set
Actual Time 7:12 AM EDT 7:34 PM EDT
Civil Twilight 6:45 AM EDT 8:01 PM EDT
Nautical Twilight 6:13 AM EDT 8:33 PM EDT
Astronomical Twilight 5:41 AM EDT 9:06 PM EDT
Moon 6:21 PM EDT (9/17) 5:06 AM EDT (9/17)
Length of Visible Light 13h 16m
Length of Day
12h 21m
Waxing Gibbous, 96% of the Moon is Illuminated
Sep 17
Waxing Gibbous
Sep 19
Full
Sep 26
Last Quarter
Oct 4
New
Oct 11
First Quarter

Hourly Weather History & Observations

Time (EDT) Temp. Windchill Dew Point Humidity Pressure Visibility Wind Dir Wind Speed Gust Speed Precip Events Conditions
12:54 AM 53.1 °F - 48.9 °F 86% 30.33 in 10.0 mi Calm Calm - N/A   Clear
1:54 AM 51.1 °F - 48.0 °F 89% 30.34 in 10.0 mi Calm Calm - N/A   Clear
2:54 AM 50.0 °F - 48.0 °F 93% 30.34 in 10.0 mi NNE 3.5 mph - N/A   Clear
3:54 AM 50.0 °F - 46.9 °F 89% 30.34 in 10.0 mi Calm Calm - N/A   Clear
4:54 AM 48.9 °F - 46.9 °F 93% 30.35 in 10.0 mi North 3.5 mph - N/A   Clear
5:54 AM 46.9 °F - 45.0 °F 93% 30.35 in 10.0 mi Calm Calm - N/A   Clear
6:54 AM 46.9 °F - 45.0 °F 93% 30.36 in 9.0 mi NE 3.5 mph - N/A   Clear
7:24 AM 46.4 °F 45.2 °F 44.6 °F 93% 30.36 in 6.0 mi North 3.5 mph - N/A   Partly Cloudy
7:54 AM 48.0 °F - 46.0 °F 93% 30.37 in 5.0 mi Calm Calm - N/A   Scattered Clouds
7:59 AM 48.2 °F - 46.4 °F 93% 30.37 in 2.5 mi Calm Calm - N/A   Mostly Cloudy
8:25 AM 48.2 °F - 46.4 °F 93% 30.36 in 1.2 mi NE 4.6 mph - N/A   Overcast
8:47 AM 48.2 °F - 48.2 °F 100% 30.36 in 3.0 mi NE 3.5 mph - N/A   Overcast
8:54 AM 50.0 °F - 48.0 °F 93% 30.36 in 6.0 mi Variable 3.5 mph - N/A   Overcast
9:08 AM 50.0 °F - 48.2 °F 94% 30.36 in 7.0 mi ENE 8.1 mph - N/A   Overcast
9:54 AM 51.1 °F - 48.9 °F 92% 30.38 in 10.0 mi ENE 5.8 mph - N/A   Overcast
10:19 AM 53.6 °F - 48.2 °F 82% 30.37 in 10.0 mi ENE 9.2 mph - N/A   Partly Cloudy
10:54 AM 55.9 °F - 48.9 °F 77% 30.37 in 10.0 mi ENE 8.1 mph - N/A   Clear
11:54 AM 61.0 °F - 51.1 °F 70% 30.36 in 10.0 mi ENE 5.8 mph - N/A   Clear
12:54 PM 66.0 °F - 52.0 °F 60% 30.34 in 10.0 mi East 4.6 mph - N/A   Clear
1:54 PM 69.1 °F - 52.0 °F 54% 30.31 in 10.0 mi Variable 3.5 mph - N/A   Clear
2:54 PM 69.1 °F - 48.9 °F 49% 30.29 in 10.0 mi Calm Calm - N/A   Clear
3:54 PM 71.1 °F - 50.0 °F 47% 30.26 in 10.0 mi Variable 3.5 mph - N/A   Clear
4:54 PM 70.0 °F - 50.0 °F 49% 30.25 in 10.0 mi ENE 6.9 mph - N/A   Clear
5:54 PM 70.0 °F - 51.1 °F 51% 30.24 in 10.0 mi ENE 6.9 mph - N/A   Clear
6:54 PM 64.9 °F - 53.1 °F 65% 30.24 in 10.0 mi NE 4.6 mph - N/A   Clear
7:54 PM 60.1 °F - 53.1 °F 78% 30.23 in 10.0 mi Calm Calm - N/A   Clear
8:54 PM 55.9 °F - 53.1 °F 90% 30.23 in 10.0 mi Calm Calm - N/A   Clear
9:54 PM 53.1 °F - 52.0 °F 96% 30.24 in 10.0 mi Calm Calm - N/A   Clear
10:54 PM 54.0 °F - 52.0 °F 93% 30.23 in 10.0 mi Calm Calm - N/A   Clear
11:54 PM 53.1 °F - 51.1 °F 93% 30.23 in 10.0 mi Calm Calm - N/A   Clear